SL-4 R/B

Last updated on Sun Jun 21 2026 00:02:16 GMT+0000 (Coordinated Universal Time)

1 39679U 14021B 26171.36909396 .00008010 00000+0 16837-3 0 9990 2 39679 51.6042 195.1816 0091103 117.5578 243.4698 15.42008265672108
UTC large
Height (km)
Speed (km/s)
/
Latitude / Longitude
Inclination (degrees)
Orbital Period (minutes)
Azimuth
Elevation
Range (km)
Doppler Factor

Next 0 passes for location: London (51.5072 / 0.1276)

No passes found over London.
SL-4 R/B